Weather History for NW Arkansas Airport, AR

Change the Weather History Date:

Monday, September 30, 2013

  Actual Average Record
Temperature  
Mean Temperature 66 °F -  
Max Temperature 80 °F - - ()
Min Temperature 53 °F - - ()
Cooling Degree Days 1    
Growing Degree Days 16 (Base 50)    
Moisture  
Dew Point 59 °F    
Average Humidity 90    
Maximum Humidity 100    
Minimum Humidity 52    
Precipitation  
Precipitation 0.00 in - - ()
Sea Level Pressure  
Sea Level Pressure 29.91 in    
Wind  
Wind Speed 2 mph (SSE)    
Max Wind Speed 10 mph    
Max Gust Speed -    
Visibility 7 miles    
Events Fog    
T = Trace of Precipitation, MM = Missing Value Source: NWS Daily Summary

Daily Weather History Graph

Daily Weather History Graph

Search for Another Location

Airport:

Trip Planner

Search our weather history database for the weather conditions in past years. The results will help you decide how hot, cold, wet, or windy it might be!

Date:

Astronomy

Sep. 30, 2013 Rise Set
Actual Time 7:11 AM CDT 7:01 PM CDT
Civil Twilight 6:46 AM CDT 7:27 PM CDT
Nautical Twilight 6:16 AM CDT 7:57 PM CDT
Astronomical Twilight 5:46 AM CDT 8:27 PM CDT
Moon 2:56 AM CDT (9/30) 4:27 PM CDT (9/30)
Length of Visible Light 12h 41m
Length of Day
11h 50m
Waning Crescent, 19% of the Moon is Illuminated
Sep 30
Waning Crescent
Oct 4
New
Oct 11
First Quarter
Oct 18
Full
Oct 26
Last Quarter

Hourly Weather History & Observations

Time (CDT) Temp. Dew Point Humidity Pressure Visibility Wind Dir Wind Speed Gust Speed Precip Events Conditions
12:53 AM 57.0 °F 55.9 °F 96% 29.93 in 10.0 mi Calm Calm - N/A   Clear
1:53 AM 55.9 °F 55.0 °F 97% 29.93 in 9.0 mi Calm Calm - N/A   Clear
2:53 AM 55.9 °F 55.9 °F 100% 29.91 in 9.0 mi Calm Calm - N/A   Partly Cloudy
3:10 AM 55.4 °F 55.4 °F 100% 29.93 in 7.0 mi Calm Calm - N/A   Partly Cloudy
3:53 AM 55.9 °F 55.0 °F 97% 29.90 in 7.0 mi Calm Calm - N/A   Clear
4:06 AM 57.2 °F 57.2 °F 100% 29.92 in 2.5 mi Calm Calm - N/A   Scattered Clouds
4:08 AM 57.2 °F 57.2 °F 100% 29.92 in 1.2 mi Calm Calm - N/A   Mostly Cloudy
4:10 AM 57.2 °F 57.2 °F 100% 29.92 in 0.8 mi Calm Calm - N/A   Mist
4:27 AM 57.2 °F 57.2 °F 100% 29.93 in 2.0 mi SE 3.5 mph - N/A   Mostly Cloudy
4:33 AM 57.2 °F 57.2 °F 100% 29.93 in 8.0 mi Calm Calm - N/A   Mostly Cloudy
4:47 AM 53.6 °F 53.6 °F 100% 29.93 in 1.8 mi Calm Calm - N/A   Mostly Cloudy
4:53 AM 55.0 °F 55.0 °F 100% 29.90 in 0.8 mi Calm Calm - N/A   Mostly Cloudy
5:01 AM 55.4 °F 55.4 °F 100% 29.93 in 2.0 mi Calm Calm - N/A   Mostly Cloudy
5:16 AM 55.4 °F 55.4 °F 100% 29.93 in 1.0 mi Calm Calm - N/A   Mist
5:19 AM 55.4 °F 55.4 °F 100% 29.93 in 0.8 mi Calm Calm - N/A   Mist
5:50 AM 53.6 °F 53.6 °F 100% 29.94 in 1.0 mi NNE 3.5 mph - N/A   Mist
5:53 AM 54.0 °F 54.0 °F 100% 29.91 in 0.8 mi Calm Calm - N/A   Mist
6:14 AM 55.4 °F 55.4 °F 100% 29.94 in 0.2 mi Calm Calm - N/A Fog Fog
6:25 AM 55.4 °F 55.4 °F 100% 29.94 in 0.2 mi Calm Calm - N/A Fog Fog
6:30 AM 55.4 °F 55.4 °F 100% 29.94 in 1.0 mi Calm Calm - N/A   Overcast
6:44 AM 57.2 °F 57.2 °F 100% 29.95 in 1.0 mi North 3.5 mph - N/A   Overcast
6:53 AM 57.0 °F 57.0 °F 100% 29.92 in 5.0 mi Calm Calm - N/A   Overcast
7:36 AM 59.0 °F 59.0 °F 100% 29.96 in 10.0 mi Calm Calm - N/A   Overcast
7:53 AM 59.0 °F 59.0 °F 100% 29.93 in 8.0 mi Calm Calm - N/A   Overcast
8:18 AM 60.8 °F 60.8 °F 100% 29.94 in 10.0 mi Calm Calm - N/A   Mostly Cloudy
8:32 AM 60.8 °F 60.8 °F 100% 29.95 in 10.0 mi ESE 3.5 mph - N/A   Mostly Cloudy
8:39 AM 60.8 °F 60.8 °F 100% 29.95 in 10.0 mi Calm Calm - N/A   Partly Cloudy
8:53 AM 62.1 °F 62.1 °F 100% 29.93 in 10.0 mi Calm Calm - N/A   Partly Cloudy
9:53 AM 66.9 °F 63.0 °F 87% 29.92 in 10.0 mi SSE 6.9 mph - N/A   Clear
10:16 AM 69.8 °F 64.4 °F 83% 29.95 in 10.0 mi South 6.9 mph - N/A   Mostly Cloudy
10:53 AM 72.0 °F 64.0 °F 76% 29.92 in 10.0 mi South 8.1 mph - N/A   Mostly Cloudy
11:53 AM 75.0 °F 62.1 °F 64% 29.92 in 10.0 mi South 9.2 mph - N/A   Scattered Clouds
12:53 PM 75.9 °F 61.0 °F 60% 29.90 in 10.0 mi Variable 4.6 mph - N/A   Scattered Clouds
1:53 PM 78.1 °F 60.1 °F 54% 29.87 in 10.0 mi South 10.4 mph - N/A   Clear
2:53 PM 79.0 °F 60.1 °F 52% 29.86 in 10.0 mi SSW 8.1 mph - N/A   Clear
3:53 PM 78.1 °F 60.1 °F 54% 29.85 in 10.0 mi South 10.4 mph - N/A   Partly Cloudy
4:53 PM 79.0 °F 60.1 °F 52% 29.85 in 10.0 mi South 10.4 mph - N/A   Mostly Cloudy
5:53 PM 75.9 °F 62.1 °F 62% 29.86 in 10.0 mi South 6.9 mph - N/A   Clear
6:53 PM 73.0 °F 63.0 °F 71% 29.86 in 10.0 mi South 8.1 mph - N/A   Scattered Clouds
7:53 PM 69.1 °F 63.0 °F 81% 29.86 in 10.0 mi South 5.8 mph - N/A   Clear
8:53 PM 68.0 °F 63.0 °F 84% 29.88 in 10.0 mi South 4.6 mph - N/A   Clear
9:53 PM 68.0 °F 64.0 °F 87% 29.88 in 10.0 mi SSE 6.9 mph - N/A   Clear
10:53 PM 66.9 °F 64.0 °F 90% 29.88 in 10.0 mi SSE 6.9 mph - N/A   Scattered Clouds
11:53 PM 66.9 °F 64.9 °F 93% 29.88 in 10.0 mi SSE 3.5 mph - N/A   Scattered Clouds